Location: Fort Wayne
(41.1310°N, 85.1290°W)
Time: 14:19:03
(UTC-05:00)

Cosmos 1000 Rocket - Visible Passes

Search period start: 28 November 2014 00:00
Search period end: 08 December 2014 00:00
Orbit: 955 x 992 km, 82.9° (Epoch: 27 November)

Date Brightness Start Highest point End Pass type
(mag) Time Alt. Az. Time Alt. Az. Time Alt. Az.
06 Dec 6.5 19:23:44 10° N 19:24:21 13° NNE 19:24:21 13° NNE visible
07 Dec 7.6 07:13:27 10° E 07:14:22 10° ENE 07:15:16 10° ENE visible
07 Dec 6.3 19:48:09 10° N 19:49:39 18° N 19:49:39 18° N visible
